{"data":{"norad_id":51102,"epoch":"2026-09-20T23:37:57.404352Z","epoch_age_seconds":71283,"freshness":"FRESH","line1":"1 51102U 22004A   26263.98469218  .00001070  00000+0  77625-4 0  9991","line2":"2 51102  98.4547 280.2035 0601158 271.7389  81.5068 14.20875464240898","mean_motion":14.20875464,"eccentricity":0.0601158,"inclination_deg":98.4547,"raan_deg":280.2035,"arg_perigee_deg":271.7389,"mean_anomaly_deg":81.5068,"bstar":7.7625e-5,"rev_number":24089,"period_min":101.34596848806,"perigee_km":389.52790770111,"apogee_km":1255.2592181293,"semimajor_km":7200.5305629152,"source":"CELESTRAK","updated_at":"2026-09-21T09:00:08.248576Z"}}